Regional Weather Roundup
Issued by NWS

Home | Current Version | Previous Version | Text Only | Print | Product List | Glossary On
Versions: 1 2 3 4 5 6 7 8 9 10 11 12 13 14 15 16 17 18 19 20 21 22 23 24 25 26 27
000
ASUS42 KKEY 210310
RWRKEY

FLORIDA REGIONAL WEATHER ROUNDUP FOR THE FLORIDA KEYS
NATIONAL WEATHER SERVICE KEY WEST FLORIDA
1000 PM EST SAT JAN 20 2018

...SOUTH FLORIDA AND THE KEYS...

CITY           SKY/WX    TMP DP  RH WIND       PRES   REMARKS
FORT MYERS     FAIR      65  57  75 E5        30.23R
SW REGIONAL AP FAIR      63  57  81 E7        30.23R
NAPLES         FAIR      65  57  75 NE6       30.22S
MIAMI          MOCLDY    69  61  75 N3        30.24R
WEST KENDALL   FAIR      64  59  83 CALM      30.23S
HOMESTEAD      CLOUDY    65  65 100 CALM      30.22S
MARATHON       FAIR      67  60  78 NE10      30.21S
KEY WEST INTL  FAIR      66  62  87 NE10      30.20F

...INTERNATIONAL WEATHER...

CITY           SKY/WX    TMP DP  RH WIND       PRES   REMARKS
NASSAU BAHAMAS MOCLDY    72  63  73 NE6       30.22R
CANCUN MEXICO  MOCLDY    73  66  78 NE6       30.10R
COZUMEL MEXICO MOCLDY    75  68  78 E8        30.07R

ADJACENT COASTAL WATERS...

STATION/POSITION TIME  SKY/WX   TEMP    WIND        PRES    WAVE
                                AIR SEA DIR/SP/G            HT/PER
                 (UTC)          (F)     (DEG/KT/KT) (MB)    (FT/S)
PULASKI SHOAL LI 0300            69      80/ 16/ 17 1022.2F
SAND KEY         0250            67                 1022.9F
LONG KEY         NOT AVBL
MOLASSES REEF    0300            72 74   70/ 13/ 15 1023.5R
FOWEY ROCKS      0300            72 73   60/ 13/ 14 1024.3R
Buoy 42097       0230               72                N/A     3/ 5

$$




USA.gov is the U.S. government's official web portal to all federal, state and local government web resources and services.